Погода в Новокрасном

Россия / Астраханская область     46°26′44″N   48°50′12″E
темп.,
°C
ветер,
м/с
пор.,
м/с
влажн.,
%
обл.,
%
осадки,
мм/ч
давл.,
гПа
погр.,
м
27 октября, ср
ср2701:00+2с22675 0.0 103410
04:00+1с22725 0.0 103310
07:000св11765 0.0 103410
10:00+5юв12530 0.0 1034357
13:00+9ю33435 0.0 10331178
16:00+10ююв33425 0.0 10311219
19:00+5ююв47625 0.0 1031133
22:00+4ююв35735 0.0 103085
28 октября, чт
чт2801:00+4ююв34825 0.0 102956
04:00+4юв33805 0.0 102822
07:00+4ююв33825 0.0 102718
10:00+10ю355992 0.0 1028993
13:00+12ю555038 0.0 10261286
16:00+11ю566197 0.0 1024877
19:00+9ююв4677100 0.0 1024275
22:00+9ююв3688100 0.0 1024232
29 октября, пт
пт2901:00+10юв3591100 0.1 1023153
04:00+10юв3596100 0.5 1022164
07:00+10ююв3597100 0.6 1022147
10:00+11ююв4787100 1.4 1024339
13:00+13ююв447087 0.3 1024677
16:00+12вюв436712 0.3 1024529
19:00+9в358050 0.0 1026123
22:00+9в367887 0.0 1027158
30 октября, сб
сб3001:00+8всв4678100 0.0 1028125
04:00+8всв4781100 0.0 1029137
07:00+10всв4868100 0.0 1031226
10:00+11всв5957100 0.0 1032403
13:00+15в67355 0.0 1032873
16:00+14вюв68375 0.0 1032705
19:00+9в48623 0.0 1033148
22:00+9в36665 0.0 103495
31 октября, вс
вс3101:00+8в45623 0.0 103470
04:00+8в44630 0.0 103453
07:00+7в47675 0.0 103491
10:00+12в610460 0.0 1034577
13:00+15вюв79340 0.0 10331015
16:00+14вюв79360 0.0 1032782
19:00+10в511520 0.0 1031310
22:00+9в512555 0.0 1031265